Time,TemperatureF,DewpointF,PressureIn,WindDirection,WindDirectionDegrees,WindSpeedMPH,WindSpeedGustMPH,Humidity,HourlyPrecipIn,Conditions,Clouds,dailyrainin,SoftwareType,DateUTC
2013-07-10 00:17:00,81.3,68.4,29.96,NE,45,0.0,5.1,65,0.00,,,0.00,open2300-1.11,2013-07-10 05:17:00,
2013-07-10 01:17:00,79.5,66.7,29.97,NNE,22,2.2,4.2,65,0.00,,,0.00,open2300-1.11,2013-07-10 06:17:00,
2013-07-10 02:17:00,78.6,65.8,30.01,ENE,67,0.0,5.4,65,0.00,,,0.00,open2300-1.11,2013-07-10 07:17:00,
2013-07-10 03:17:00,77.4,65.5,30.01,NNE,22,2.2,2.7,67,0.00,,,0.00,open2300-1.11,2013-07-10 08:17:00,
2013-07-10 04:17:00,75.6,65.1,30.01,NNE,22,0.0,4.7,70,0.00,,,0.00,open2300-1.11,2013-07-10 09:17:00,
2013-07-10 05:17:00,73.9,64.0,30.02,NNE,22,0.0,0.9,71,0.00,,,0.00,open2300-1.11,2013-07-10 10:17:00,
2013-07-10 06:17:00,72.5,63.4,30.02,NNE,22,0.0,0.0,73,0.00,,,0.00,open2300-1.11,2013-07-10 11:17:00,
2013-07-10 07:17:00,73.0,63.9,30.02,NNE,22,0.0,1.3,73,0.00,,,0.00,open2300-1.11,2013-07-10 12:17:00,
2013-07-10 08:17:00,75.7,64.8,30.03,ENE,67,0.0,0.0,69,0.00,,,0.00,open2300-1.11,2013-07-10 13:17:00,
2013-07-10 09:17:00,78.8,66.0,30.05,ENE,67,0.0,6.9,65,0.00,,,0.00,open2300-1.11,2013-07-10 14:17:00,
2013-07-10 10:17:00,82.6,67.3,30.06,ENE,67,0.0,0.0,60,0.00,,,0.00,open2300-1.11,2013-07-10 15:17:00,
2013-07-10 11:17:00,85.3,65.2,30.07,SE,135,0.0,4.0,51,0.00,,,0.00,open2300-1.11,2013-07-10 16:17:00,
2013-07-10 12:17:00,88.2,65.3,30.07,ENE,67,0.0,3.1,47,0.00,,,0.00,open2300-1.11,2013-07-10 17:17:00,
2013-07-10 13:17:00,90.0,65.6,30.08,East,90,0.0,6.0,45,0.00,,,0.00,open2300-1.11,2013-07-10 18:17:00,
2013-07-10 14:17:00,91.6,65.1,30.07,ESE,112,4.5,4.5,42,0.00,,,0.00,open2300-1.11,2013-07-10 19:17:00,
2013-07-10 15:17:00,91.6,64.5,30.07,ENE,67,0.0,6.7,41,0.00,,,0.00,open2300-1.11,2013-07-10 20:17:00,
2013-07-10 16:17:00,90.0,63.7,30.04,ENE,67,2.5,4.2,42,0.00,,,0.00,open2300-1.11,2013-07-10 21:17:00,
2013-07-10 17:17:00,87.1,63.1,30.03,NNE,22,0.0,3.8,45,0.00,,,0.00,open2300-1.11,2013-07-10 22:17:00,
2013-07-10 18:17:00,85.3,62.8,30.02,NNE,22,0.0,3.4,47,0.00,,,0.00,open2300-1.11,2013-07-10 23:17:00,
2013-07-10 19:17:00,84.7,63.5,29.99,East,90,1.1,5.6,49,0.00,,,0.00,open2300-1.11,2013-07-11 00:17:00,
2013-07-10 20:17:00,82.9,62.9,30.00,ESE,112,0.0,1.1,51,0.00,,,0.00,open2300-1.11,2013-07-11 01:17:00,
2013-07-10 21:17:00,79.0,61.4,30.00,ESE,112,0.0,0.0,55,0.00,,,0.00,open2300-1.11,2013-07-11 02:17:00,
2013-07-10 22:17:00,76.3,60.9,30.02,ESE,112,0.0,0.0,59,0.00,,,0.00,open2300-1.11,2013-07-11 03:17:00,
2013-07-10 23:17:00,74.5,61.0,30.04,ESE,112,0.0,0.0,63,0.00,,,0.00,open2300-1.11,2013-07-11 04:17:00,